[[{"header":{"parameterUnit":"m.s-1","parameterCategory":1,"la1":30.2991,"la2":30.254,"lo1":-89.0895,"lo2":-89.0444,"dy":0.0017,"dx":0.0017,"nx":28,"ny":28,"refTime":"2024-12-08T09:00:00:Z","depth":0,"parameterNumber":2,"parameterNumberName":"U-component_of_WINDS"},"data":[0,0,0,0,0,0,0,0,0,0,0,0,0,0,0,0,0,0,0,0,0,0,0,0,0,0,0,0,0,0,0,0,0,0,0,0,0,0,0,0,0,0,0,0,0,0,0,0,0,0,0,0,0,0,0,0,0,0,-0.0434,-0.0432,0,-0.0247,-0.0244,-0.0242,-0.0134,-0.0134,-0.0134,-0.0133,0.0065,0.007,0.0074,0,0,0,0,0,0,0,0,0,0,0,0,0,-0.0694,-0.069,-0.0435,-0.0432,-0.043,-0.0247,-0.0244,-0.0242,-0.0134,-0.0134,-0.0134,-0.0133,0.0063,0.0069,0.0075,0,0,0,0,0,0,0,0,0,0,0,0,0,-0.0552,-0.0689,-0.0435,-0.0354,-0.0345,-0.0247,-0.0244,-0.0241,-0.0135,-0.0134,-0.0133,-0.0133,0.0061,0.0068,0.0076,0.011,0,0,0.0098,0.0102,0,0,0,0,0,0,0,0,-0.056,-0.0542,-0.0369,-0.036,-0.0349,-0.0213,-0.0263,-0.0123,-0.0135,-0.0214,-0.0133,-0.0133,-0.0028,-0.0013,0.0021,0.0119,0.0128,0.0099,0.0103,0.0107,0.0109,0,0,0,0,0,0,0,-0.057,-0.055,-0.036,-0.0366,-0.0354,-0.0326,-0.0305,-0.0236,-0.0126,-0.0207,-0.0199,-0.0179,-0.0022,0.0014,0.0027,0.0131,0.0099,0.0105,0.011,0.0113,0.0267,0.0267,0,0,0,0,0,0,-0.0593,-0.0559,-0.0366,-0.0354,-0.0456,-0.0322,-0.0298,-0.0258,-0.0127,-0.0107,-0.0179,-0.0174,0.0001,0.0018,0.0034,0.0083,0.0107,0.0113,0.0118,0.0268,0.0267,0.0267,0,0,0,0,0,0,-0.0599,-0.0577,-0.0373,-0.0454,-0.0426,-0.0318,-0.0273,-0.0254,-0.0218,-0.0106,-0.0085,-0.0163,0.0002,0.0024,0.009,0.0091,0.0117,0.0124,0.0268,0.0268,0.0267,0.018,0,0,0,0,0,0,-0.0607,-0.058,-0.0568,-0.0455,-0.0422,-0.0323,-0.0273,-0.0251,-0.0206,-0.0198,-0.0085,-0.0066,0.0004,0.0078,0.0097,0.0102,0.0129,0.0268,0.0268,0.0267,0.0184,0.0177,0.0171,0,0,0,0,0,-0.0617,-0.0598,-0.0568,-0.0545,-0.0405,-0.0323,-0.0304,-0.0226,-0.0207,-0.0192,-0.012,-0.0069,0.0088,0.0084,0.0107,0.0113,0.0269,0.0268,0.0267,0.0186,0.0178,0.0171,0,0,0,0,0,0,-0.0712,-0.0582,-0.0546,-0.0491,-0.0419,-0.0305,-0.0284,-0.0237,-0.0168,-0.0162,-0.0066,-0.0042,0.0016,0.0072,0.0065,0.0154,0.0184,0.0188,0.0115,0.0108,0.0102,0.0088,0.0135,0,0,0,0,0,-0.0727,-0.0673,-0.0562,-0.0524,-0.049,-0.0394,-0.0355,-0.0301,-0.0222,-0.019,-0.0113,-0.0037,0.003,0.0073,0.014,0.0192,0.0219,0.0208,0.0202,0.0196,0.0198,0.0231,0.0228,0.0265,0.0265,0.0265,0,0,-0.0756,-0.0679,-0.065,-0.0541,-0.0479,-0.0424,-0.0369,-0.0313,-0.027,-0.0181,-0.0114,-0.0055,0.0037,0.0096,0.0127,0.0145,0.0194,0.0195,0.019,0.0196,0.023,0.0226,0.0223,0.0264,0.0264,0.0264,0,0,-0.0782,-0.0718,-0.0679,-0.0619,-0.0526,-0.0462,-0.0453,-0.0346,-0.0304,-0.0235,-0.0167,-0.0114,-0.0001,0.0062,0.0108,0.0107,0.0156,0.0126,0.0094,0.0125,0.0122,0.012,0.012,0.0119,0.0128,0.0128,0.0128,0,-0.083,-0.0746,-0.0665,-0.0613,-0.0566,-0.0485,-0.0444,-0.0388,-0.0277,-0.0246,-0.0227,-0.0084,-0.0016,0.0059,0.0058,0.0094,0.0108,0.0114,0.0115,0.0114,0.0113,0.0115,0.0114,0.0124,0.0124,0.0124,0.0125,0,-0.0809,-0.0752,-0.0731,-0.0629,-0.0579,-0.0533,-0.0443,-0.0403,-0.0353,-0.0291,-0.0221,-0.0137,-0.0051,-0.0029,0.0021,0.0054,0.0062,0.0097,0.0129,0.0104,0.0107,0.0108,0.0117,0.0119,0.012,0.0121,0,0,-0.0889,-0.0743,-0.0737,-0.0689,-0.058,-0.0533,-0.0483,-0.04,-0.0367,-0.0293,-0.0247,-0.0154,-0.0121,-0.0068,-0.001,0.0016,0.001,0.0048,0.0052,0.0038,0.0053,0.0026,0.0025,0.0044,0.0044,0.0044,0.0045,0,-0.0899,-0.0807,-0.0732,-0.0667,-0.0612,-0.0534,-0.0489,-0.0417,-0.0357,-0.03,-0.0233,-0.0169,-0.0131,-0.0098,-0.0068,0.0004,0.0014,0.0005,0.0089,0.0091,0.0063,0.0027,-0.0001,-0.0005,0.0047,0.0047,0.0047,0,-0.0898,-0.083,-0.076,-0.0657,-0.0631,-0.0593,-0.051,-0.0458,-0.0374,-0.0332,-0.0273,-0.0213,-0.0154,-0.0128,-0.0044,-0.0052,-0.0013,0.0027,0.0029,0.004,0.0067,0.0037,-0.0004,-0.0004,0.005,0.0049,0.0049,0,-0.0964,-0.0853,-0.0797,-0.0758,-0.0637,-0.0612,-0.0559,-0.0475,-0.043,-0.0357,-0.0327,-0.0248,-0.0204,-0.0144,-0.0063,-0.0052,0.0012,0.0045,0.005,0.0048,0.006,0.0058,0.0025,0.0084,0.0084,0.0084,0.0084,0,-0.0983,-0.0943,-0.0825,-0.079,-0.0743,-0.0656,-0.0611,-0.0551,-0.0476,-0.0427,-0.0354,-0.0309,-0.0206,-0.0148,-0.0084,-0.0024,-0.0005,0.0032,0.0048,0.0025,0.002,0.0052,0.0054,0.0084,0.0084,0.0084,0.0084,0,-0.1048,-0.0968,-0.0901,-0.0792,-0.0763,-0.0733,-0.0638,-0.06,-0.0536,-0.0475,-0.0456,-0.0355,-0.0283,-0.0197,-0.0096,-0.0054,0.0001,0.0025,-0.0029,-0.0019,-0.0019,-0.002,-0.0033,-0.0029,0.0026,0.0025,0.0025,0,-0.1065,-0.1033,-0.0921,-0.0883,-0.0834,-0.0775,-0.0729,-0.0642,-0.0597,-0.0498,-0.0472,-0.0395,-0.0328,-0.0217,-0.0133,-0.0056,-0.0028,-0.0038,-0.0016,-0.004,-0.0028,-0.0031,-0.0027,-0.0044,-0.0045,-0.0046,-0.0047,0,-0.1104,-0.1066,-0.1004,-0.0928,-0.0875,-0.0811,-0.0742,-0.0716,-0.0614,-0.0567,-0.0493,-0.0442,-0.034,-0.0264,-0.0176,-0.012,-0.0066,-0.0054,-0.0049,-0.0072,-0.0105,-0.0087,-0.0044,-0.0054,-0.0054,-0.0053,-0.0053,-0.0052,-0.1145,-0.1113,-0.1029,-0.0962,-0.0902,-0.084,-0.0799,-0.0731,-0.0669,-0.058,-0.0532,-0.046,-0.0374,-0.0251,-0.0196,-0.0137,-0.0118,-0.0111,-0.0108,-0.0108,-0.0115,-0.0115,-0.0121,-0.012,-0.012,-0.012,-0.0119,0,-0.118,-0.1123,-0.1062,-0.097,-0.0916,-0.0872,-0.0794,-0.0752,-0.069,-0.0616,-0.0553,-0.0468,-0.0393,-0.0305,-0.0224,-0.0193,-0.0167,-0.0175,-0.0176,-0.0164,-0.0136,-0.0149,-0.0198,-0.0198,-0.0198,-0.0198,-0.0198,-0.0198,-0.1192,-0.1135,-0.1087,-0.0998,-0.094,-0.087,-0.0829,-0.0771,-0.0711,-0.0621,-0.0559,-0.0502,-0.0421,-0.0334,-0.0264,-0.0239,-0.0212,-0.0228,-0.0197,-0.0173,-0.0166,-0.0159,-0.0171,-0.0223,-0.0223,-0.0228,-0.0229,-0.0229]},{"header":{"parameterUnit":"m.s-1","parameterCategory":1,"la1":30.2991,"la2":30.254,"lo1":-89.0895,"lo2":-89.0444,"dy":0.0017,"dx":0.0017,"nx":28,"ny":28,"refTime":"2024-12-08T09:00:00:Z","depth":0,"parameterNumber":3,"parameterNumberName":"V-component_of_WINDS"},"data":[0,0,0,0,0,0,0,0,0,0,0,0,0,0,0,0,0,0,0,0,0,0,0,0,0,0,0,0,0,0,0,0,0,0,0,0,0,0,0,0,0,0,0,0,0,0,0,0,0,0,0,0,0,0,0,0,0,0,3.5059,3.5058,0,3.4976,3.4975,3.4974,3.5009,3.5011,3.5013,3.5015,3.4918,3.4913,3.4909,0,0,0,0,0,0,0,0,0,0,0,0,0,3.5236,3.5233,3.5059,3.5058,3.5057,3.4976,3.4975,3.4974,3.5009,3.5011,3.5014,3.5016,3.4919,3.4914,3.4908,0,0,0,0,0,0,0,0,0,0,0,0,0,3.5156,3.5232,3.5059,3.5065,3.5065,3.4976,3.4975,3.4973,3.5008,3.5011,3.5014,3.5017,3.4921,3.4914,3.4908,3.4804,0,0,3.4887,3.4884,0,0,0,0,0,0,0,0,3.5161,3.515,3.5065,3.5065,3.5064,3.5006,3.5002,3.4916,3.5008,3.5029,3.5015,3.5019,3.4944,3.4935,3.4913,3.48,3.4796,3.4886,3.4882,3.4879,3.4877,0,0,0,0,0,0,0,3.5166,3.5154,3.5026,3.5064,3.5063,3.5068,3.506,3.4985,3.497,3.5028,3.503,3.502,3.4944,3.4919,3.4911,3.4794,3.4887,3.488,3.4876,3.4874,3.4589,3.4585,0,0,0,0,0,0,3.5174,3.5158,3.5029,3.5023,3.5122,3.5062,3.5053,3.5022,3.4971,3.4967,3.5018,3.5022,3.4929,3.4918,3.4907,3.4781,3.4879,3.4873,3.4869,3.4592,3.4588,3.4584,0,0,0,0,0,0,3.5177,3.5162,3.5032,3.5091,3.5075,3.5056,3.502,3.5018,3.4994,3.4964,3.496,3.4996,3.4931,3.4917,3.483,3.4778,3.487,3.4864,3.4596,3.4591,3.4586,3.4528,0,0,0,0,0,0,3.5182,3.5163,3.5127,3.5091,3.5072,3.496,3.5017,3.5015,3.4983,3.4988,3.4942,3.4937,3.4932,3.484,3.4823,3.477,3.4859,3.4601,3.4594,3.4588,3.4534,3.4521,3.451,0,0,0,0,0,3.5189,3.5112,3.5125,3.5109,3.5027,3.4957,3.4946,3.4945,3.4979,3.494,3.4921,3.4939,3.4787,3.4831,3.4812,3.4756,3.4604,3.4596,3.4588,3.454,3.4524,3.4511,0,0,0,0,0,0,3.5138,3.5107,3.5121,3.5032,3.4997,3.4963,3.4914,3.4929,3.4881,3.4887,3.4884,3.4873,3.4783,3.4761,3.481,3.4652,3.47,3.4688,3.4669,3.4654,3.4642,3.4648,3.4853,0,0,0,0,0,3.5118,3.5068,3.5041,3.4964,3.4947,3.4933,3.4903,3.4905,3.4868,3.4852,3.4826,3.4785,3.4728,3.469,3.4636,3.4532,3.452,3.4484,3.4472,3.4462,3.4451,3.439,3.4373,3.4558,3.4558,3.4558,0,0,3.5073,3.505,3.5017,3.4954,3.4927,3.4871,3.4921,3.4859,3.4816,3.4841,3.4758,3.4737,3.4691,3.4595,3.4551,3.4574,3.4398,3.4452,3.4445,3.4439,3.438,3.4363,3.4347,3.4553,3.4554,3.4554,0,0,3.4962,3.4941,3.4874,3.4847,3.4807,3.4799,3.4782,3.4746,3.4734,3.4652,3.4669,3.4615,3.4518,3.4483,3.4453,3.4328,3.4341,3.431,3.4246,3.4187,3.4172,3.4159,3.4111,3.4094,3.4299,3.4299,3.4299,0,3.491,3.483,3.4836,3.4773,3.4743,3.4767,3.4696,3.4668,3.4611,3.4587,3.4615,3.4492,3.4463,3.4357,3.4326,3.4302,3.4279,3.4314,3.4175,3.4162,3.4149,3.4103,3.4085,3.4295,3.4296,3.4296,3.4297,0,3.4766,3.471,3.4659,3.4608,3.4572,3.4505,3.4496,3.4458,3.4463,3.445,3.4363,3.433,3.4268,3.4243,3.4247,3.4136,3.4151,3.4177,3.4224,3.4128,3.4084,3.4067,3.429,3.4291,3.4293,3.4294,0,0,3.462,3.4574,3.4554,3.453,3.4488,3.4442,3.4375,3.4318,3.4284,3.4243,3.4183,3.41,3.4123,3.4088,3.4088,3.4036,3.3935,3.4067,3.4066,3.4041,3.3806,3.3785,3.3765,3.3944,3.3941,3.3939,3.3809,0,3.4504,3.4391,3.4393,3.4285,3.4231,3.4253,3.4193,3.4158,3.4143,3.4092,3.4074,3.4014,3.4051,3.403,3.398,3.3958,3.3887,3.3967,3.3883,3.388,3.3892,3.3743,3.3721,3.36,3.3792,3.3789,3.3787,0,3.4354,3.4312,3.4199,3.4164,3.4141,3.4088,3.4034,3.3986,3.3945,3.3938,3.3899,3.3906,3.3832,3.3884,3.3779,3.3834,3.38,3.3783,3.3778,3.3768,3.3826,3.3725,3.3562,3.3543,3.3761,3.3763,3.3765,0,3.4255,3.417,3.4091,3.407,3.4027,3.3988,3.3968,3.3931,3.3895,3.3847,3.3823,3.3766,3.3734,3.3687,3.3676,3.3716,3.3569,3.3621,3.3557,3.3557,3.3523,3.3525,3.3349,3.3506,3.3506,3.3507,3.3507,0,3.4123,3.4053,3.4046,3.3997,3.3917,3.3919,3.3838,3.382,3.3787,3.3731,3.3745,3.3692,3.3683,3.3625,3.3616,3.3528,3.3514,3.3502,3.35,3.35,3.3501,3.3475,3.3482,3.3502,3.3503,3.3504,3.3505,0,3.3999,3.3992,3.3907,3.3874,3.3864,3.3806,3.3775,3.3726,3.3714,3.3643,3.3626,3.3604,3.3537,3.3523,3.3443,3.3437,3.3331,3.3339,3.3346,3.3346,3.3281,3.3286,3.308,3.3052,3.323,3.3228,3.3227,0,3.3914,3.3861,3.3823,3.3789,3.3767,3.3712,3.3677,3.3675,3.3637,3.3585,3.3541,3.3477,3.3425,3.3316,3.329,3.3228,3.3232,3.3164,3.3222,3.3222,3.3227,3.3229,3.3222,3.3152,3.315,3.3148,3.3147,0,3.3764,3.3763,3.3715,3.3664,3.3622,3.3581,3.3542,3.3511,3.3504,3.3459,3.3394,3.3354,3.3273,3.3207,3.3144,3.3118,3.3128,3.313,3.3111,3.3108,3.3114,3.3106,3.3313,3.3134,3.3135,3.3136,3.3137,3.3137,3.3655,3.3607,3.3573,3.3517,3.3488,3.3451,3.3402,3.3385,3.3331,3.3268,3.3269,3.3196,3.3152,3.307,3.3039,3.2978,3.2999,3.2972,3.2965,3.2958,3.2951,3.3126,3.2967,3.2967,3.2968,3.2968,3.2968,0,3.3502,3.3482,3.3431,3.3377,3.3331,3.3351,3.3308,3.3267,3.3204,3.3165,3.3114,3.3036,3.2972,3.2941,3.2876,3.2833,3.2836,3.2815,3.2817,3.281,3.2938,3.2959,3.2814,3.2814,3.2814,3.2814,3.2814,3.2814,3.3418,3.3338,3.3333,3.3237,3.3215,3.3147,3.312,3.3083,3.3052,3.2965,3.2914,3.2896,3.2858,3.279,3.273,3.2722,3.2696,3.2672,3.2666,3.2785,3.2801,3.2816,3.2836,3.2667,3.2667,3.2543,3.2542,3.2541]}]]